sat.trackr.live / text

‹ back to catalog

STARLINK-31781

NORAD 59632 · 2024-082B

PAYLOAD ACTIVE UNKNOWN

§ Identity

Operator
Country
US
Launch date
2024-05-03
Launch site
AFETR
Launch vehicle
Mass (kg)
RCS (m²)

Purposes: comms

External: N2YO · Heavens-Above · Gunter

§ Orbital elements

Epoch: 2026-05-24T22:40:39.436896Z

Period
94.27 min
Inclination
43.0061°
Eccentricity
0.0001389
Mean motion
15.27570719 rev/d
Perigee alt
482.1 km
Apogee alt
484.0 km
Semi-major
6,861.2 km
B*
5.6491e-5
RAAN
55.0464°
Arg perigee
246.1557°
Mean anomaly
113.9149°
Rev number
11,667

§ Raw data

STARLINK-317811 59632U 24082B   26144.94490089  .00001292  00000+0  56491-4 0  99932 59632  43.0061  55.0464 0001389 246.1557 113.9149 15.27570719116679

JSON: /api/v1/satellites/59632 · /tle

For live sub-satellite position, see the globe view (requires WebGL).

§ Visibility from observer

Set your observer location to see the next 7 days of passes ≥ 10°. The values pass through the URL so the page stays shareable.

No JS? Fill the form by hand. The geolocation button needs JavaScript.